Location: Observatory
(52.1446°N, 0.4624°W)
Time: 16:40:32
(UTC+01:00)

ISS - Pass Details

Date: 29 May 2020
Orbit: 417 x 420 km, 51.6° (Epoch: 26 May)

Event Time Altitude Azimuth Distance (km) Brightness Sun altitude
Rises 22:56:18 0° 280° (W) 2,367 0.7 -11.3°
Reaches altitude 10° 22:59:00 10° 257° (WSW) 1,500 -0.8 -11.5°
Maximum altitude 23:01:04 16° 218° (SW) 1,205 -1.7 -11.7°
Enters shadow 23:02:20 13° 193° (SSW) 1,318 -1.7 -11.8°
